www.pogodaiklimat.ru

Погода и климат >> Архив погоды >> Россия >> Нижегородская область >> Нижний Новгород


АРХИВ ПОГОДЫ в Нижнем Новгороде

Время (UTC), дата Ветер
(напр.,м/с)
 
Видим.   Явления Облачность Т
(С)
Тd
(С)
f
(%)
Тe
(С)
Тes
(С)
Комфортность P
(гПа)
Po
(гПа)
Тmin
(С)
Tmax
(С)
R
(мм)
S
(см)
21 14.02 СВ 2-4
{6}
10 км 9/9 600 м
[Sc]
-8.3 -10.2 86 -13 -13 по сезону 1008.8 988.5
00 15.02 С 3-5
{6}
10 км 9/9 600 м
[Sc]
-8.3 -10.2 86 -14 -14 по сезону 1010.8 990.5
03 15.02 СЗ 1-3
{5}
4000 м слабый снег 10/10 300 м
[Frnb]
-8.0 -9.8 87 -10 -10 по сезону 1012.5 992.2 -9.1 0.3 61
06 15.02 З 1-3
{3}
10 км слабый ливневой снег 9/9 300 м
[Cb cap]
-6.8 -8.4 88 -9 -9 по сезону 1014.0 993.7
09 15.02 С 3-7
{8}
2800 м слабый ливневой снег 10/10 200 м
[Cb cap]
-3.2 -4.9 88 -8 -8 по сезону 1015.4 995.5
12 15.02 С 3-6
{10}
10 км {ливн. осадки} 9/8 300 м
[Sc Ac trans Ci fib]
-2.7 -8.4 65 -7 -7 по сезону 1016.7 996.8
15 15.02 С 3-7
{11}
10 км слабый снег {ливн. осадки} 8/6 300 м
[Frnb Ci fib]
-5.2 -7.7 83 -11 -11 по сезону 1020.2 1000.0 -2.6 0.9
18 15.02 С 3-7
{9}
10 км {снег, метель} 4/4 300 м
[St]
-6.3 -10.3 73 -12 -12 по сезону 1022.6 1002.3
21 15.02 С 3-6
{9}
10 км 6/6 300 м
[St]
-6.2 -10.2 73 -12 -12 по сезону 1024.1 1003.7
00 16.02 С 3-5
{7}
10 км 10/10 600 м
[Sc]
-6.7 -10.4 75 -12 -12 по сезону 1026.1 1005.7
03 16.02 С 2-5
{7}
10 км слабый снег 8/8 600 м
[St]
-6.5 -10.6 73 -11 -11 по сезону 1027.3 1006.9 -7.2 62
06 16.02 СЗ 1-5
{6}
10 км {снег} 5/0
[Ac trans Ci fib]
-7.5 -11.5 73 -10 -9 по сезону 1028.7 1008.0 -8.1
09 16.02 С 2-6
{7}
10 км 5/3 600 м
[Sc Ci fib]
-5.4 -13.0 55 -9 -7 по сезону 1028.9 1008.4
12 16.02 СЗ 2-4
{6}
10 км 8/8 600 м
[Sc]
-5.2 -13.2 53 -9 -9 по сезону 1028.2 1007.7
15 16.02 СЗ 1-2
{4}
10 км 9/6 600 м
[Sc Ac trans]
-6.8 -14.7 53 -9 -9 по сезону 1027.8 1007.4 -4.7
18 16.02 штиль 0
{3}
10 км 3/0
[Ac trans]
-9.6 -13.7 72 -10 -10 по сезону 1027.8 1007.1
21 16.02 штиль 0
{1}
10 км ясно -11.2 -14.7 75 -11 -11 по сезону 1027.2 1006.4
00 17.02 штиль 0
{2}
10 км ясно -11.0 -14.6 75 -11 -11 по сезону 1025.7 1004.9
03 17.02 Ю 2-3
{5}
10 км ясно -12.5 -16.0 75 -17 -17 прохладно 1023.2 1002.4 -12.5 62
06 17.02 Ю 3-7
{7}
10 км 4/0
[Ci fib]
-11.9 -15.4 75 -18 -17 прохладно 1021.1 1000.3 -13.3
09 17.02 Ю 3-8
{8}
10 км 6/0
[As trans Ci ing]
-6.4 -12.9 60 -12 -10 по сезону 1017.8 997.5
12 17.02 Ю 2-6
{8}
10 км 10/3 600 м
[Sc Ac trans Ci sp]
-4.7 -10.9 62 -9 -8 по сезону 1014.3 994.2
15 17.02 Ю 2-6
{8}
10 км 10/0
[As op]
-5.1 -10.1 68 -9 -9 по сезону 1012.5 992.4 -4.0
18 17.02 Ю 1-3
{6}
10 км слабый снег 10/10 300 м
[Frnb]
-5.9 -7.8 86 -8 -8 по сезону 1011.6 991.5
21 17.02 ЮЗ 2-6
{8}
10 км {снег} 10/10 300 м
[St]
-6.0 -7.9 86 -10 -10 по сезону 1009.8 989.7
00 18.02 ЮЗ 2-5
{7}
10 км {снег} 10/10 300 м
[St]
-5.8 -6.9 92 -10 -10 по сезону 1008.4 988.3
03 18.02 ЮЗ 2-5
{6}
10 км 10/10 300 м
[St]
-5.4 -6.8 90 -10 -10 по сезону 1006.8 986.8 -6.3 0.2 62
06 18.02 ЮЗ 2-5
{6}
10 км слабый снег 10/10 300 м
[Frnb]
-4.5 -5.4 93 -9 -9 по сезону 1005.9 986.0
09 18.02 ЮЗ 3-6
{6}
4000 м слабый снег 10/10 300 м
[Frnb Ns]
-2.7 -4.0 91 -8 -8 по сезону 1004.9 985.2
12 18.02 З 2-6
{6}
10 км в посл. час снег 10/10 300 м
[Frnb]
-0.4 -1.9 90 -4 -4 тепло 1004.0 984.4
15 18.02 З 3-6
{7}
10 км слабый снег 10/10 300 м
[Frnb]
+0.5 -0.3 94 -4 -4 тепло 1003.6 984.1 +0.5 1
18 18.02 З 3-6
{9}
10 км {снег} 10/10 300 м
[Sc]
+0.6 -1.1 88 -4 -4 тепло 1002.9 983.4
21 18.02 З 3-8
{10}
10 км 10/10 300 м
[Sc]
0.0 -4.1 74 -4 -4 тепло 1002.4 982.8
00 19.02 З 3-10
{10}
10 км слабый снег 10/10 300 м
[Frnb]
0.0 -3.0 80 -5 -5 тепло 1001.9 982.4
03 19.02 СЗ 3-7
{10}
10 км в посл. час снег {ливн. осадки} 3/0
[Ac trans]
-1.6 -3.6 86 -7 -7 тепло 1004.9 985.2 -1.6 1 60
06 19.02 СЗ 3-6
{8}
10 км {ливн. осадки, снег} 6/0
[Ac trans]
-2.2 -6.5 72 -7 -6 тепло 1008.6 988.8 -2.2
09 19.02 З 2-4
{9}
10 км 5/0
[Ac trans Ci fib]
-0.7 -8.8 54 -4 -1 тепло 1010.8 991.1
12 19.02 З 2-5
{7}
10 км 10/0
[Cs]
-0.7 -8.8 54 -4 -3 тепло 1010.7 991.0
15 19.02 Ю 2-4
{5}
4000 м слабый снег 10/10 300 м
[St]
-1.8 -3.9 86 -6 -6 по сезону 1008.5 988.7 -0.4 0.4
18 19.02 ЮЗ 2-5
{9}
10 км {снег} 8/8 300 м
[St]
+0.3 -2.6 81 -3 -3 тепло 1005.1 985.5
21 19.02 ЮЗ 3-7
{8}
10 км 10/10 300 м
[St]
0.0 -2.0 86 -5 -5 тепло 1002.4 982.8
00 20.02 ЮЗ 4-8
{10}
4000 м слабый снег 10/10 300 м
[St]
+0.2 -1.8 86 -5 -5 тепло 1000.8 981.3
03 20.02 ЮЗ 3-6
{10}
10 км {снег} 10/10 300 м
[St]
+0.6 -1.3 87 -4 -4 тепло 999.5 980.2 -2.0 1 58
06 20.02 ЮЗ 2-7
{10}
4000 м слабый снег 10/10 300 м
[St]
+0.8 -1.3 86 -3 -3 тепло 998.7 979.4
09 20.02 ЮЗ 3-8
{11}
10 км слабая морось {снег} 10/10 300 м
[St]
+1.5 -1.0 83 -3 -3 тепло 997.8 978.5
12 20.02 ЮЗ 2-12
{12}
10 км {снег, морось} 10/10 300 м
[St]
+2.3 -1.0 79 -1 -1 тепло 997.4 978.1
15 20.02 ЮЗ 2-10
{12}
10 км слабый дождь {морось} 10/10 300 м
[Frnb Ns]
+1.7 -0.2 87 -2 -2 тепло 997.1 977.8 +2.5 0.5
18 20.02 ЮЗ 2-7
{10}
10 км слабый дождь {морось} 10/10 300 м
[Frnb Ns]
+1.6 +0.2 90 -2 -2 тепло 996.5 977.3
21 20.02 ЮЗ 2-7
{11}
10 км слабый снег {дождь} 10/10 300 м
[Frnb Ns]
+1.0 +0.2 94 -3 -3 тепло 995.2 976.0
00 21.02 ЮЗ 2-7
{10}
4000 м слабый снег {дождь} 10/10 300 м
[Frnb Ns]
+0.7 -0.4 92 -3 -3 тепло 994.1 974.8
03 21.02 ЮЗ 3-7
{10}
2000 м снег 10/10 200 м
[Frnb Ns]
+0.2 -0.4 96 -5 -5 тепло 992.2 972.9 +0.2 2 56
06 21.02 ЮЗ 2-10
{11}
2000 м снег {метель} 10/10 200 м
[Frnb Ns]
0.0 0.0 100 -4 -4 тепло 990.2 971.0 0.0
09 21.02 Ю 3-9
{10}
3000 м слабый снег {метель} [диам. отлож. мокр. снега 4 мм] 10/10 200 м
[Frnb Ns]
+0.2 -0.9 92 -5 -5 тепло 989.3 970.1
12 21.02 ЮЗ 3-8
{11}
3000 м слабый снег {метель} [диам. отлож. мокр. снега 2 мм] 10/10 200 м
[Frnb Ns]
+0.4 -0.7 92 -4 -4 тепло 988.5 969.3
15 21.02 ЮЗ 3-9
{11}
2000 м слабый снег 10/10 200 м
[Frnb Ns]
+0.4 -0.5 94 -4 -4 тепло 987.7 968.5 +0.4 4
18 21.02 ЮЗ 3-7
{9}
2000 м слабый снег 10/10 200 м
[Frnb Ns]
+0.4 -0.7 92 -4 -4 тепло 987.5 968.3

 

Местоположение метеостанции Нижний Новгород (Нижегородская область, Россия): широта 56.27 долгота 44.00 высота над уровнем моря 157 м.

В архиве по умолчанию представлена погода в Нижнем Новгороде за последнюю неделю. Архивные данные за месяц целиком и за предыдущие месяцы, начиная с января 2011 года, Вы можете получить, выбрав интересующий диапазон дат из раскрывающегося списка и нажав кнопку "Ввод!".

Внимание! Время в таблицах - всемирное. Для получения местного времени необходимо прибавить поправку, которая в Нижнем Новгороде равна 3 ч.

Смотрите также архив погоды в соседних городах и на ближайших метеорологических станциях:

Погода в Нижнем Новгороде аэропорт (Нижегородская область, Россия) (15 км)
Погода в Дальнем Константиново (Нижегородская область, Россия) (53 км)
Погода в Волжской ГМО (Нижегородская область, Россия) (57 км)
Погода в Семенове (Нижегородская область, Россия) (60 км)
Погода в Павлово (Нижегородская область, Россия) (70 км)
Погода в Лысково (Нижегородская область, Россия) (70 км)
Погода в Арзамасе (Нижегородская область, Россия) (101 км)
Погода в Воскресенском (Нижегородская область, Россия) (106 км)
Погода в Вязниках (Владимирская область, Россия) (113 км)
Погода в Красных Баках (Нижегородская область, Россия) (119 км)

Пояснения к столбцам:

Ветер - указаны скорость ветра в м/с - средняя за 10 мин, порывы в срок и между сроками (в фигурных скобках) и направление, откуда дует ветер: С - северный, СВ - северо-восточный, В - восточный, ЮВ - юго-восточный, Ю - южный, ЮЗ - юго-западный, З - западный, СЗ - северо-западный.
Видимость - горизонтальная дальность видимости в метрах или километрах. При видимости от 1 до 10 км при отсутствии осадков обычно наблюдается дымка, при ухудшении видимости до 1 км и менее - туман. В сухую погоду видимость может ухудшаться дымом, пылью или мглою.
Явления - указаны атмосферные явления, наблюдавшиеся в срок или в последний час перед сроком; фигурными скобками обозначены явления, наблюдавшиеся между сроками (за 1-3 часа до срока); квадратными скобками обозначены град или гололедные отложения с указанием их диаметра в мм.
Облачность - указаны через наклонную черту общая и нижняя облачность в баллах и высота нижней границы облаков в метрах; квадратными скобками обозначены формы облаков: Ci - перистые, Cs - перисто-слоистые, Cc - перисто-кучевые, Ac - высококучевые, As - высокослоистые, Sc - слоисто-кучевые, Ns - слоисто-дождевые, Cu - кучевые, Cb - кучево-дождевые. Подробнее классификацию облаков см. в Атласе облаков (PDF).
T - Температура воздуха - температура, измеренная на высоте 2 м над землей.
Td - Температура точки росы - температура, при понижении до которой содержащийся в воздухе водяной пар достигнет насыщения.
f - Относительная влажность воздуха - влажноcть воздуха, измеренная на высоте 2 м над землей.
Te - Эффективная температура - температура, которую ощущает одетый по сезону человек в тени. Характеристика душности погоды. При расчете учитывается влияние влажности воздуха и скорости ветра на теплоощущения человека.
Tes - Эффективная температура на солнце - температура, которую ощущает человек, с поправкой на солнечный нагрев. Характеристика знойности погоды. Зависит от высоты солнца над горизонтом, облачности и скорости ветра. Ночью, в пасмурную погоду, а также при ветре 12 м/с и более поправка равна нулю.
P - Атмосферное давление - приведенное к уровню моря атмосферное давление.
Po - Атмосферное давление - измеренное на уровне метеостанции атмосферное давление.
Tmin - Минимальная температура - минимум температуры воздуха на высоте 2 м над землей.
Tmax - Максимальная температура - максимум температуры воздуха на высоте 2 м над землей.
R - Количество осадков - Количество выпавших осадков, мм. При наведении курсора мыши на число - период времени, за который выпало указанное количество осадков.
S - Снежный покров - Высота снежного покрова, см. При наведении курсора мыши на число - состояние снежного покрова и степень покрытия местности в баллах.